Weather in Chulpan

Russia / Samara Oblast     54°01′20″N   52°01′39″E
temp.,
°C
wind,
m/s
gust,
m/s
humid.,
%
clouds,
%
prec.,
mm/h
press.,
hPa
HPBL,
m
25 february, thu
thu2501:00−28nnw23980 0.0 103428
04:00−29nw23970 0.0 103520
07:00−30wnw12981 0.0 103519
10:00−25sw11911 0.0 103461
13:00−20s358894 0.0 1033278
16:00−20s588997 0.0 1030301
19:00−20s61190100 0.0 1028379
22:00−20s61196100 0.4 1026419
26 february, fri
fri2601:00−19sse61296100 0.5 1023494
04:00−18sse71295100 0.9 1022498
07:00−18sse61295100 0.4 1019487
10:00−15sse71293100 0.8 1019540
13:00−12sse71191100 0.3 1018687
16:00−11sse71092100 0.6 1016633
19:00−12sse71293100 0.3 1013493
22:00−11sse81494100 0.8 1009437
27 february, sat
sat2701:00−9sse81694100 2.2 1003500
04:00−5s91595100 7.4 999523
07:00+1w51299100 1.9 996566
10:000wsw7129999 2.1 997721
13:000wsw61010099 0.5 997687
16:000wsw6109798 0.7 997655
19:00−1sw599899 0.4 997409
22:00−1sw5997100 1.0 997380
28 february, sun
sun2801:00−2sw4997100 0.6 997322
04:00−3wnw4697100 1.4 998270
07:00−9nw4795100 0.5 1000268
10:00−11nw469498 0.8 1002303
13:00−11nw579399 0.1 1004410
16:00−11nnw579299 0.1 1006487
19:00−14nw599599 0.1 1009345
22:00−17nw369796 0.1 1011148
1 march, mon
mon101:00−16nw379793 0.1 1013202
04:00−16nw379790 0.2 1014194
07:00−16nnw489688 0.1 1016281
10:00−15nnw579491 0.2 1018331
13:00−14nnw469398 0.0 1020361
16:00−14nnw469399 0.1 1020365
19:00−18nnw359898 0.0 102298
22:00−21nw2210087 0.1 102221